TEVEL2-4

Last updated on Sun Apr 12 2026 00:03:15 GMT+0000 (Coordinated Universal Time)

1 63213U 25052D 26101.16428651 .00014504 00000+0 46628-3 0 9994 2 63213 97.3974 357.5385 0002927 35.2463 324.8971 15.32360187 59841
UTC large
Height (km)
Speed (km/s)
/
Latitude / Longitude
Inclination (degrees)
Orbital Period (minutes)
Azimuth
Elevation
Range (km)
Doppler Factor

Next 0 passes for location: London (51.5072 / 0.1276)

Sorry there are no passes over London.
TEVEL2-4